Location: Villingen
(48.0639°N, 8.4609°E)
Time: 12:27:25
(UTC+02:00)

ISS - Pass Details

Date: 07 January 2018
Orbit: 402 x 408 km, 51.6° (Epoch: 20 July)

Event Time Altitude Azimuth Distance (km) Brightness Sun altitude
Exits shadow 06:12:15 43° 6° (N) 598 -3.1 -19.7°
Drops below altitude 10° 06:15:26 10° 77° (ENE) 1,502 0.0 -19.2°
Enters shadow 07:09:07 -74° 281° (W) 12,670 3.7 -10.6°
Maximum altitude 07:49:05 88° 19° (NNE) 425 -3.7 -4.6°
